Weather History for LGRX - October, 2013

Change the Weather History Date:

Thursday, October 10, 2013

  Actual Average Record
Temperature  
Mean Temperature 65 °F -  
Max Temperature 71 °F 70 °F 89 °F (1998)
Min Temperature 59 °F 54 °F 51 °F (2003)
Growing Degree Days 15 (Base 50)    
Moisture  
Dew Point 60 °F    
Average Humidity 80    
Maximum Humidity 94    
Minimum Humidity 64    
Precipitation  
Precipitation 0.00 in - - ()
Sea Level Pressure  
Sea Level Pressure 30.08 in    
Wind  
Wind Speed 6 mph ()    
Max Wind Speed 15 mph    
Max Gust Speed -    
Visibility 5.8 miles    
Events Rain , Thunderstorm    
Averages and records for this station are not official NWS values.
T = Trace of Precipitation, MM = Missing Value Source: Averaged Metar Reports

Daily Weather History Graph

Daily Weather History Graph

Search for Another Location

Airport or City:

Trip Planner

Search our weather history database for the weather conditions in past years. The results will help you decide how hot, cold, wet, or windy it might be!

Date:

Astronomy

Oct. 10, 2013 Rise Set
Actual Time 7:38 AM EEST 7:03 PM EEST
Civil Twilight 7:11 AM EEST 7:30 PM EEST
Nautical Twilight 6:41 AM EEST 8:00 PM EEST
Astronomical Twilight 6:10 AM EEST 8:31 PM EEST
Moon 1:09 PM EEST (10/10) 11:25 PM EEST (10/10)
Length of Visible Light 12h 18m
Length of Day
11h 25m
Waxing Crescent, 32% of the Moon is Illuminated
Oct 10
Waxing Crescent
Oct 12
First Quarter
Oct 19
Full
Oct 27
Last Quarter
Nov 3
New

Hourly Weather History & Observations

Time (EEST) Temp. Dew Point Humidity Pressure Visibility Wind Dir Wind Speed Gust Speed Precip Events Conditions
12:50 AM 59.0 °F 57.2 °F 94% 30.12 in 6.2 mi Calm Calm - N/A   Partly Cloudy
1:50 AM 60.8 °F 59.0 °F 94% 30.12 in 6.2 mi East 5.8 mph - N/A   Partly Cloudy
2:50 AM 60.8 °F 57.2 °F 88% 30.09 in 6.2 mi ENE 5.8 mph - N/A   Partly Cloudy
3:50 AM 62.6 °F 59.0 °F 88% 30.09 in 6.2 mi Calm Calm - N/A   Mostly Cloudy
5:50 AM 64.4 °F 60.8 °F 88% 30.09 in 5.0 mi NE 6.9 mph - N/A Rain , Thunderstorm Heavy Thunderstorms and Rain
6:20 AM 62.6 °F 60.8 °F 94% 30.09 in 3.7 mi North 13.8 mph - N/A Rain , Thunderstorm Thunderstorms and Rain
6:50 AM 62.6 °F 60.8 °F 94% 30.09 in 4.3 mi NE 9.2 mph - N/A Rain Light Rain
7:20 AM 62.6 °F 60.8 °F 94% 30.09 in 4.3 mi ENE 11.5 mph - N/A Rain Rain
7:50 AM 62.6 °F 60.8 °F 94% 30.09 in 4.3 mi NE 9.2 mph - N/A Rain Light Rain
9:50 AM 62.6 °F 59.0 °F 88% 30.12 in 4.3 mi ENE 9.2 mph - N/A Rain , Thunderstorm Thunderstorms and Rain
10:20 AM 64.4 °F 60.8 °F 88% 30.12 in 4.3 mi East 9.2 mph - N/A Rain , Thunderstorm Thunderstorms and Rain
10:50 AM 62.6 °F 60.8 °F 94% 30.06 in 4.3 mi East 13.8 mph - N/A Rain Rain
11:20 AM 64.4 °F 60.8 °F 88% 30.09 in 6.2 mi East 11.5 mph - N/A   Mostly Cloudy
11:50 AM 66.2 °F 60.8 °F 83% 30.09 in 6.2 mi Variable 3.5 mph - N/A   Mostly Cloudy
12:20 PM 68.0 °F 62.6 °F 83% 30.09 in 6.2 mi North 5.8 mph - N/A   Mostly Cloudy
12:50 PM 68.0 °F 60.8 °F 78% 30.09 in 6.2 mi NE 8.1 mph - N/A   Mostly Cloudy
1:20 PM 69.8 °F 60.8 °F 73% 30.09 in 6.2 mi NE 6.9 mph - N/A   Mostly Cloudy
1:50 PM 69.8 °F 60.8 °F 73% 30.06 in 6.2 mi ENE 4.6 mph - N/A   Mostly Cloudy
2:20 PM 71.6 °F 60.8 °F 69% 30.06 in 6.2 mi Variable 3.5 mph - N/A   Mostly Cloudy
2:50 PM 71.6 °F 60.8 °F 69% 30.06 in 6.2 mi Variable 3.5 mph - N/A   Mostly Cloudy
3:20 PM 71.6 °F 60.8 °F 69% 30.06 in 6.2 mi Variable 3.5 mph - N/A   Mostly Cloudy
3:50 PM 71.6 °F 59.0 °F 64% 30.06 in 6.2 mi South 9.2 mph - N/A   Mostly Cloudy
4:20 PM 69.8 °F 59.0 °F 68% 30.06 in 6.2 mi South 11.5 mph - N/A   Mostly Cloudy
4:50 PM 69.8 °F 60.8 °F 73% 30.06 in 6.2 mi South 15.0 mph - N/A   Mostly Cloudy
5:20 PM 69.8 °F 60.8 °F 73% 30.06 in 6.2 mi South 13.8 mph - N/A   Mostly Cloudy
5:50 PM 69.8 °F 59.0 °F 68% 30.06 in 6.2 mi South 6.9 mph - N/A   Mostly Cloudy
6:20 PM 68.0 °F 59.0 °F 73% 30.06 in 6.2 mi South 8.1 mph - N/A   Mostly Cloudy
6:50 PM 68.0 °F 59.0 °F 73% 30.06 in 6.2 mi South 5.8 mph - N/A   Mostly Cloudy
7:20 PM 68.0 °F 59.0 °F 73% 30.06 in 6.2 mi Variable 3.5 mph - N/A   Mostly Cloudy
7:50 PM 68.0 °F 59.0 °F 73% 30.06 in 6.2 mi Variable 3.5 mph - N/A   Mostly Cloudy
8:20 PM 66.2 °F 59.0 °F 78% 30.09 in 6.2 mi Calm Calm - N/A   Mostly Cloudy
8:50 PM 68.0 °F 59.0 °F 73% 30.06 in 6.2 mi Variable 3.5 mph - N/A   Mostly Cloudy
9:50 PM 68.0 °F 60.8 °F 78% 30.06 in 6.2 mi Variable 3.5 mph - N/A   Mostly Cloudy
10:50 PM 68.0 °F 60.8 °F 78% 30.09 in 6.2 mi Variable 3.5 mph - N/A   Mostly Cloudy
11:50 PM 68.0 °F 62.6 °F 83% 30.09 in 6.2 mi Variable 3.5 mph - N/A   Mostly Cloudy